|
NORAD ID: 24756 Int'l Code: 1997-012B
Perigee: 705.1 km
Apogee: 709.7 km
Inclination: 98.8 °
Period: 98.8 minutes
Semi major axis: 7078 km
Launch date: April 4, 1997
Source: United States (US)
Note: This is SATELLITE DEBRIS
Two Line Element Set (TLE):
1 24756U 97012B 13143.11483264 .00009005 00000-0 19772-2 0 2551
2 24756 098.8189 076.8149 0003240 065.8344 049.8987 14.57804638845854
Source:
NASA's NSSDC Master Catalog entry for DMSP 5D-2 F14 DEB
|